Location: Elkol
(41.7238°N, 110.6124°W)
Time: 15:57:20
(UTC+00:00)

BlueWalker 3 - Pass Details

Date: 07 December 2022
Orbit: 499 x 517 km, 53.2° (Epoch: 01 February)

Event Time Altitude Azimuth Distance (km) Brightness Sun altitude
Rises 00:20:51 0° 306° (NW) 2,631 6.0 -5.6°
Reaches altitude 10° 00:23:43 10° 328° (NNW) 1,739 4.8 -6.1°
Maximum altitude 00:26:17 17° 9° (N) 1,374 3.8 -6.5°
Drops below altitude 10° 00:28:51 10° 50° (NE) 1,728 4.0 -7.0°
Enters shadow 00:29:17 - 55° (NE) 1,843 4.1 -7.1°
